Location: Gorys?awice
(50.3550°N, 20.6811°E)
Time: 02:13:06
(UTC+00:00)

Daily predictions for brighter satellites

Satellite Brightness Start Highest point End
(mag) Time Altitude Azimuth Time Altitude Azimuth Time Altitude Azimuth
SL-14 R/B 3.4 00:02:49 37° SW 00:04:08 60° WNW 00:07:58 10° N
Orbus 7S? 3.5 00:02:44 20° W 00:04:34 46° NNW 00:07:12 10° NE
Cosmos 540 Rocket 3.4 00:00:27 10° NNW 00:05:38 77° WSW 00:09:10 20° SSE
Resurs 1-4 Rocket 3.2 00:01:43 10° NNE 00:06:36 37° E 00:10:24 15° SSE
Cosmos 1953 2.7 00:03:49 10° N 00:07:42 58° ENE 00:10:13 20° SSE
Cosmos 1244 Rocket 4.4 00:04:51 25° S 00:08:37 87° W 00:14:50 10° N
CZ-2C R/B 3.2 00:04:37 10° SE 00:09:38 54° ENE 00:14:40 10° N
Cosmos 1697 Rocket 3.8 00:06:39 10° NW 00:11:18 27° WSW 00:12:58 23° SW
Cosmos 724 4.3 00:08:27 25° SW 00:12:07 84° NW 00:17:59 10° NE
Cosmos 1703 Rocket 4.4 00:09:56 19° SSE 00:12:44 44° E 00:16:58 10° NNE
ATLAS 2AS CENTAUR R/B 4.5 00:07:44 10° NW 00:14:03 34° NNE 00:20:07 10° E
OPS 6432 4.0 00:12:08 10° NW 00:15:16 81° SW 00:17:25 19° SE
COSMOS 2406 3.4 00:12:11 25° S 00:15:36 66° ESE 00:21:20 10° NNE
Cosmos 1980 Rocket 2.5 00:11:47 10° NW 00:17:15 48° WSW 00:20:33 23° S
Cosmos 1862 Rocket 3.7 00:16:00 30° SW 00:17:56 58° WNW 00:22:14 10° N
Cosmos 1758 4.3 00:14:58 10° NNW 00:18:19 29° W 00:19:14 26° WSW
MSX 4.3 00:15:03 10° NNE 00:20:41 54° E 00:25:00 17° S
Cosmos 2369 3.8 00:15:29 10° NW 00:21:04 57° WSW 00:25:13 18° S
NPP 4.0 00:16:53 10° NNE 00:22:16 62° ESE 00:26:04 19° S
SL-16 R/B 3.5 00:18:01 10° SE 00:23:58 48° ENE 00:29:57 10° N
Meteor 1-16 Rocket 4.3 00:21:16 10° NNW 00:26:49 65° W 00:30:51 20° S
Cosmos 1607 4.3 00:23:16 18° WSW 00:28:13 65° NW 00:34:42 10° NE
BREEZE-M DEB (TANK) 2.2 00:27:51 10° WNW 00:30:17 44° N 00:32:14 10° ENE
Meteor 1-21 4.5 00:27:29 23° SW 00:30:59 58° WNW 00:36:40 10° N
Cosmos 1300 Rocket 4.4 00:28:38 10° N 00:32:52 47° ENE 00:37:01 10° SSE
Cosmos 1455 1.8 00:32:42 10° NNW 00:36:10 81° W 00:38:09 24° S
Helios 1A Rocket 4.3 00:35:43 19° WSW 00:36:32 21° W 00:39:32 10° NW
Cosmos 1315 Rocket 2.9 00:36:05 22° S 00:38:27 66° E 00:42:20 10° NNE
Cosmos 1709 Rocket 4.5 00:34:28 12° S 00:40:15 60° E 00:46:30 10° NNE
Cosmos 2228 Rocket 4.4 00:38:49 18° WSW 00:41:10 28° WNW 00:45:03 10° N
H-2A R/B 3.3 00:37:54 10° NNE 00:41:56 87° WNW 00:44:21 23° SSW
Lacrosse 5 rocket 1.5 00:38:16 10° NW 00:42:24 71° NNE 00:46:20 10° ESE
Meteor 1-4 Rocket 2.0 00:41:20 30° S 00:42:38 82° E 00:45:37 10° NNE
SL-16 R/B 2.3 00:37:54 10° NNW 00:43:37 78° ENE 00:49:18 10° SSE
USA 267 4.0 00:40:53 10° ENE 00:47:12 54° N 00:53:30 10° W
Cosmos 841 Rocket 3.5 00:46:26 10° NNW 00:51:39 70° WSW 00:56:51 10° SSE
Cosmos 2082 Rocket 2.5 00:50:37 18° SW 00:54:51 60° NW 01:00:33 10° NNE
Cosmos 676 Rocket 4.2 00:52:54 19° SW 00:56:43 67° WNW 01:02:03 10° NNE
Cosmos 2237 4.2 00:51:01 10° NNW 00:56:47 78° WSW 01:02:30 10° SSE
ADEOS II 2.3 00:56:21 10° NNE 01:01:37 68° ESE 01:06:30 12° S
Cosmos 2219 Rocket 3.9 00:57:46 10° NNW 01:02:58 36° NE 01:08:10 10° ESE
Cosmos 1833 Rocket 4.5 01:00:04 10° W 01:04:29 23° NW 01:08:54 10° NNE
Okean 1-7 3.8 01:03:32 18° SW 01:06:15 38° WNW 01:10:18 10° N
Okean 2 4.1 01:04:37 18° SW 01:07:04 38° WNW 01:10:49 10° N
Cosmos 1782 Rocket 3.6 01:03:14 10° NNW 01:07:36 65° W 01:11:45 11° S
Geosat 4.5 01:02:50 10° SE 01:07:47 66° NE 01:12:47 10° NNW
Cosmos 1908 Rocket 4.3 01:04:39 10° NNW 01:08:42 35° W 01:11:38 16° SSW
SJ 16-02 2.8 01:05:59 10° SSE 01:09:47 31° ESE 01:13:36 10° NE
Cosmos 2360 Rocket 2.7 01:04:19 10° NNW 01:10:00 65° ENE 01:15:38 10° SE
Cosmos 1408 2.8 01:07:42 12° S 01:10:17 49° E 01:13:13 10° NNE
IDEFIX/ARIANE 42P 2.9 01:06:41 10° N 01:11:49 55° WNW 01:16:06 15° SW
Cosmos 1814 Rocket 4.3 01:08:36 10° NNW 01:13:48 71° ENE 01:19:01 10° SSE
CZ-2C R/B 3.4 01:13:14 10° NNE 01:19:05 82° WNW 01:24:41 11° SSW
CRYOSAT 2 4.4 01:14:29 10° N 01:19:24 77° W 01:24:16 10° SSW
ALOS 2.7 01:16:48 10° NNE 01:21:23 59° E 01:25:56 10° S
SL-8 R/B 4.2 01:17:23 10° W 01:21:48 37° SSW 01:26:12 10° SE
CZ-2D R/B 2.4 01:16:52 10° N 01:22:18 61° WNW 01:27:12 12° SSW
Cosmos 1745 Rocket 4.3 01:17:54 14° SSW 01:23:12 52° WNW 01:29:21 10° N
Cosmos 2278 4.1 01:18:18 10° NW 01:23:43 45° WSW 01:29:06 10° S
Meteor 2-5 Rocket 4.5 01:18:09 10° S 01:23:52 56° E 01:29:41 10° NNE
SL-27 R/B 3.8 01:24:24 10° SSE 01:26:47 25° ESE 01:29:11 10° NE
Cosmos 2242 Rocket 3.6 01:26:23 10° SSW 01:30:47 79° WNW 01:35:17 10° N
Cosmos 2333 Rocket 2.4 01:26:07 10° NNW 01:31:52 83° ENE 01:37:37 10° SSE
Cosmos 1703 3.4 01:29:58 10° S 01:33:41 69° E 01:37:25 10° NNE
Cosmos 839 Rocket 4.3 01:26:07 10° NW 01:33:45 86° NE 01:40:06 10° SE
Cosmos 1242 Rocket 2.2 01:33:00 14° SSW 01:35:22 54° WNW 01:38:14 10° N
FENGYUN 3A 3.7 01:30:30 10° NNE 01:35:53 72° WNW 01:41:13 10° SSW
AQUA 3.9 01:34:41 10° N 01:39:24 70° WNW 01:44:06 10° SSW
Cosmos 2151 Rocket 4.1 01:36:50 10° N 01:41:20 64° ENE 01:45:46 10° SSE
Cosmos 1953 4.2 01:40:58 10° NW 01:43:03 14° W 01:45:07 10° WSW
Meteor 1-28 Rocket 3.8 01:41:05 10° SSW 01:44:22 34° W 01:47:41 10° NNW
Cosmos 2322 Rocket 2.3 01:39:49 10° NW 01:45:23 60° WSW 01:50:56 10° S
Resurs 1-4 Rocket 2.9 01:41:34 10° N 01:46:24 38° WNW 01:51:11 10° SW
UNK 3.8 01:43:11 10° S 01:47:48 65° WSW 01:52:26 10° NNW
CZ-2C R/B 3.7 01:46:00 10° SSW 01:50:13 25° W 01:54:27 10° NW
Envisat 3.7 01:45:59 10° NNE 01:50:59 56° E 01:55:58 10° S
EXPRESS MD2 3.9 01:49:52 10° SW 01:52:51 44° SSE 01:58:01 10° E
Okean 2 Rocket 3.2 01:50:38 10° N 01:55:03 80° ENE 01:59:27 10° SSE
Cosmos 2184 Rocket 4.3 01:48:54 10° S 01:55:04 73° E 02:01:21 10° NNE
SAR-Lupe-4 3.9 01:56:19 10° N 01:59:50 52° WNW 02:03:18 10° SSW
Cosmos 1850 Rocket 4.5 01:55:43 10° SW 02:00:53 51° WNW 02:06:02 10° NNE
Cosmos 1741 Rocket 4.5 01:58:59 10° SW 02:04:04 50° WNW 02:09:12 10° NNE
Nadezhda 3 Rocket 4.3 01:58:51 10° N 02:05:16 79° E 02:11:37 10° SSE
Cosmos 2154 Rocket 4.3 01:59:25 10° S 02:05:34 71° E 02:11:46 10° NNE
ATLAS 2AS CENTAUR R/B 2.8 01:58:56 10° NW 02:05:53 83° NE 02:12:33 10° SE
SL-16 R/B 3.1 02:01:55 10° SSW 02:07:40 38° W 02:13:29 10° NNW
